W7KKE-3 Weather Reports


time (UTC)temp
C
wind
direction
speed
KPH
gust
KPH
rain 1hr
cm
rain 24hr
cm
rain mn
cm
humidity
%
barometer
mb
20260905172325 15 277 1.6 4.8 0.00 1.04 0.00 92 1012.9
20260905171825 15 280 0.0 3.2 0.00 1.04 0.00 92 1012.8
20260905171326 15 278 0.0 3.2 0.00 1.04 0.00 92 1012.8
20260905170825 15 292 0.0 1.6 0.00 1.04 0.00 92 1012.8
20260905165825 15 194 1.6 6.4 0.00 1.04 0.00 91 1012.7
20260905165325 15 226 1.6 6.4 0.00 1.04 0.00 92 1012.7
20260905164825 16 211 4.8 4.8 0.00 1.04 0.00 92 1012.7
20260905164326 16 260 0.0 3.2 0.00 1.04 0.00 92 1012.6
20260905163825 16 238 0.0 3.2 0.00 1.04 0.00 92 1012.6
20260905163325 15 267 1.6 1.6 0.00 1.04 0.00 93 1012.6
20260905162825 15 117 0.0 1.6 0.00 1.04 0.00 92 1012.6
20260905162325 15 172 0.0 1.6 0.00 1.04 0.00 93 1012.6
20260905161825 14 0 0.0 4.8 0.00 1.04 0.00 92 1012.7
20260905161326 14 105 0.0 4.8 0.00 1.04 0.00 92 1012.6
20260905160825 14 109 1.6 4.8 0.00 1.04 0.00 92 1012.6
20260905160325 14 102 1.6 3.2 0.00 1.04 0.00 92 1012.7
20260905155825 14 112 0.0 3.2 0.00 1.04 0.00 92 1012.7
20260905155325 14 92 1.6 3.2 0.00 1.04 0.00 92 1012.6
20260905154825 14 92 3.2 3.2 0.00 1.04 0.00 92 1012.7
20260905154326 14 100 0.0 3.2 0.00 1.04 0.00 92 1012.7
20260905153825 14 96 0.0 6.4 0.00 1.04 0.00 92 1012.8
20260905153325 14 106 1.6 6.4 0.00 1.04 0.00 92 1012.7
20260905152920 14 49 3.2 6.4 0.00 1.04 0.00 92 1012.8
20260905152825 14 49 3.2 6.4 0.00 1.04 0.00 92 1012.8
20260905152325 13 98 1.6 4.8 0.00 1.04 0.00 92 1012.8
20260905151825 13 114 1.6 4.8 0.00 1.04 0.00 92 1012.7
20260905151326 13 110 0.0 3.2 0.00 1.04 0.00 92 1012.7
20260905150825 13 110 0.0 3.2 0.00 1.04 0.00 92 1012.7
20260905150325 13 128 0.0 3.2 0.00 1.04 0.00 92 1012.6
20260905145825 13 106 0.0 3.2 0.00 1.04 0.00 92 1012.6
20260905145325 13 84 1.6 1.6 0.00 1.04 0.00 92 1012.6
20260905144825 13 177 0.0 1.6 0.00 1.04 0.00 92 1012.6
20260905144326 13 201 0.0 1.6 0.00 1.04 0.00 92 1012.6
20260905143825 13 176 0.0 4.8 0.00 1.04 0.00 92 1012.6
20260905143325 13 179 1.6 4.8 0.00 1.04 0.00 92 1012.6
20260905142825 13 191 0.0 4.8 0.00 1.04 0.00 92 1012.5
20260905142325 13 207 1.6 1.6 0.00 1.04 0.00 92 1012.6
20260905141825 13 0 0.0 0.0 0.00 1.04 0.00 92 1012.5
20260905141326 13 0 0.0 0.0 0.00 1.04 0.00 92 1012.5
20260905140825 13 102 0.0 0.0 0.00 1.04 0.00 92 1012.4
20260905140325 13 117 0.0 3.2 0.00 1.04 0.00 92 1012.5
20260905135825 13 105 1.6 3.2 0.00 1.07 0.00 92 1012.4
20260905135325 13 86 1.6 3.2 0.00 1.07 0.00 92 1012.4
20260905134825 13 102 1.6 3.2 0.00 1.07 0.00 92 1012.3
20260905134326 13 103 0.0 4.8 0.00 1.07 0.00 92 1012.2
20260905133825 13 105 1.6 4.8 0.00 1.07 0.00 92 1012.2
20260905133325 13 105 1.6 4.8 0.00 1.07 0.00 92 1012.2
20260905132825 13 130 3.2 3.2 0.00 1.07 0.00 92 1012.2
20260905132325 13 85 0.0 0.0 0.00 1.07 0.00 92 1012.2
20260905131825 13 103 0.0 0.0 0.00 1.07 0.00 92 1012.2
20260905131326 13 117 0.0 4.8 0.00 1.07 0.00 92 1012.2
20260905130825 13 99 0.0 4.8 0.00 1.07 0.00 92 1012.2
20260905130325 13 102 0.0 4.8 0.00 1.07 0.00 92 1012.1
20260905125825 13 84 3.2 3.2 0.00 1.07 0.00 92 1012.1
20260905125325 13 100 0.0 3.2 0.00 1.07 0.00 92 1012.1
20260905124919 13 106 0.0 3.2 0.00 1.07 0.00 92 1012.1
20260905124825 13 106 0.0 3.2 0.00 1.07 0.00 92 1012.1
20260905124326 13 82 0.0 1.6 0.00 1.07 0.00 92 1012.1
20260905123825 13 110 0.0 4.8 0.00 1.07 0.00 92 1012.0
20260905123325 13 95 1.6 4.8 0.00 1.07 0.00 92 1012.0
20260905122825 13 100 1.6 4.8 0.00 1.07 0.00 92 1012.0
20260905122325 13 98 0.0 3.2 0.00 1.07 0.00 92 1012.0
20260905121825 13 84 1.6 4.8 0.00 1.07 0.00 92 1012.0
20260905121326 13 109 1.6 4.8 0.00 1.07 0.00 92 1012.0
20260905120825 13 102 1.6 4.8 0.00 1.07 0.00 92 1011.9
20260905120325 13 0 3.2 3.2 0.00 1.07 0.00 92 1011.9
20260905115825 13 102 0.0 3.2 0.00 1.07 0.00 92 1011.9
20260905115325 13 0 1.6 1.6 0.00 1.07 0.00 92 1011.9
20260905114825 13 105 0.0 3.2 0.00 1.07 0.00 91 1012.0
20260905114326 13 0 0.0 3.2 0.00 1.07 0.00 91 1011.9
20260905113825 13 134 0.0 3.2 0.00 1.07 0.00 91 1011.9
20260905113325 13 113 0.0 1.6 0.00 1.07 0.00 91 1011.8
20260905112825 13 92 0.0 1.6 0.00 1.07 0.00 91 1011.7
20260905112325 13 168 0.0 1.6 0.00 1.07 0.00 92 1011.8
20260905111825 13 0 0.0 3.2 0.00 1.07 0.00 92 1011.8
20260905111326 13 75 0.0 3.2 0.00 1.07 0.00 92 1011.8
20260905110825 13 86 0.0 3.2 0.00 1.07 0.00 92 1011.8
20260905110325 13 78 0.0 1.6 0.00 1.07 0.00 92 1011.8
20260905105825 13 0 0.0 0.0 0.00 1.07 0.00 92 1011.9
20260905105325 13 0 0.0 0.0 0.00 1.07 0.00 92 1011.9
20260905104825 13 0 0.0 0.0 0.00 1.07 0.00 92 1011.9
20260905104326 13 0 0.0 0.0 0.00 1.07 0.00 92 1011.9
20260905103825 13 0 0.0 0.0 0.00 1.07 0.00 92 1011.9
20260905103325 13 0 0.0 0.0 0.00 1.07 0.00 91 1011.9
20260905102825 13 0 0.0 3.2 0.00 1.07 0.00 91 1011.9
20260905102325 13 98 0.0 3.2 0.00 1.07 0.00 91 1011.9
20260905101825 13 98 0.0 3.2 0.00 1.07 0.00 91 1011.9
20260905101326 13 138 0.0 1.6 0.00 1.07 0.00 92 1011.9
20260905100825 13 151 0.0 0.0 0.00 1.07 0.00 92 1011.9
20260905100325 13 198 0.0 4.8 0.00 1.07 0.00 92 1011.9
20260905095825 13 107 0.0 4.8 0.00 1.07 0.00 92 1011.9
20260905095325 13 112 0.0 4.8 0.00 1.07 0.00 92 1011.9
20260905094829 -17 91 0.0 4.8 0.00 1.07 0.00 92 1011.9
20260905094825 13 91 0.0 4.8 0.00 1.07 0.00 92 1011.9
20260905094326 13 91 1.6 3.2 0.00 1.07 0.00 92 1011.9
20260905093825 13 89 1.6 3.2 0.00 1.07 0.00 92 1011.9
20260905093325 13 106 0.0 3.2 0.00 1.07 0.00 92 1011.8
20260905092825 13 75 1.6 1.6 0.00 1.07 0.00 92 1011.8
20260905092325 12 98 0.0 3.2 0.00 1.07 0.00 92 1011.8
20260905091825 12 0 0.0 3.2 0.00 1.07 0.00 92 1011.8
20260905091326 12 100 0.0 3.2 0.00 1.07 0.00 92 1011.8
20260905090825 12 0 0.0 1.6 0.00 1.07 0.00 91 1011.7
20260905085825 12 102 0.0 1.6 0.00 1.07 0.00 91 1011.8
20260905085325 12 0 0.0 0.0 0.00 1.07 0.00 91 1011.7
20260905084825 12 0 0.0 0.0 0.00 1.07 0.00 91 1011.7
20260905084326 12 0 0.0 0.0 0.00 1.07 0.00 91 1011.6
20260905083825 12 96 0.0 1.6 0.00 1.07 0.00 91 1011.6
20260905082825 12 85 0.0 1.6 0.00 1.07 0.00 91 1011.5
20260905082325 12 0 0.0 0.0 0.00 1.07 0.00 91 1011.5
20260905081825 12 0 0.0 0.0 0.00 1.07 0.00 91 1011.5
20260905081326 12 0 0.0 0.0 0.00 1.07 0.00 91 1011.5
20260905080825 12 0 0.0 0.0 0.00 1.07 0.00 91 1011.4
20260905080325 12 0 0.0 0.0 0.00 1.07 0.00 91 1011.4
20260905075825 12 0 0.0 0.0 0.00 1.09 0.00 91 1011.4
20260905075325 12 0 0.0 0.0 0.00 1.09 0.00 91 1011.4
20260905075007 13 0 0.0 0.0 0.00 1.09 0.00 91 1011.4
20260905074825 13 0 0.0 0.0 0.00 1.09 0.00 91 1011.4
20260905074326 13 0 0.0 0.0 0.00 1.09 0.00 91 1011.3
20260905073825 13 0 0.0 0.0 0.00 1.09 0.00 91 1011.4
20260905073325 13 0 0.0 0.0 0.00 1.09 0.00 91 1011.4
20260905072825 13 0 0.0 0.0 0.00 1.09 0.00 91 1011.3
20260905072325 13 0 0.0 0.0 0.00 1.09 0.00 91 1011.3
20260905071825 13 0 0.0 0.0 0.00 1.09 0.00 91 1011.2
20260905071326 13 85 0.0 3.2 0.00 1.09 0.00 91 1011.1
20260905070825 13 124 0.0 3.2 0.00 1.09 0.00 91 1011.1
20260905070325 13 170 0.0 3.2 0.00 1.09 0.00 91 1011.1
20260905065325 14 243 0.0 4.8 0.00 1.09 1.09 91 1011.1
20260905064825 14 184 0.0 4.8 0.00 1.09 1.09 91 1011.1
20260905064326 14 193 0.0 4.8 0.00 1.09 1.09 91 1011.1
20260905063825 14 170 1.6 4.8 0.00 1.09 1.09 91 1011.0
20260905063325 14 196 1.6 4.8 0.00 1.09 1.09 91 1010.9
20260905062831 14 191 1.6 3.2 0.00 1.09 1.09 91 1010.9
20260905062825 14 191 1.6 3.2 0.00 1.09 1.09 91 1010.9
20260905062325 14 172 0.0 3.2 0.00 1.09 1.09 91 1010.9
20260905061825 14 233 0.0 1.6 0.00 1.09 1.09 91 1010.9
20260905061326 14 0 0.0 0.0 0.00 1.09 1.09 91 1010.9
20260905060825 14 194 0.0 3.2 0.00 1.09 1.09 91 1010.8
20260905060325 14 177 0.0 3.2 0.00 1.09 1.09 91 1010.9
20260905055825 14 183 0.0 3.2 0.00 1.09 1.09 91 1010.8
20260905055325 14 0 0.0 0.0 0.00 1.09 1.09 91 1010.9
20260905054825 14 0 0.0 0.0 0.00 1.09 1.09 91 1010.9
20260905054326 14 0 0.0 0.0 0.00 1.09 1.09 91 1011.0
20260905053825 14 0 0.0 0.0 0.00 1.09 1.09 91 1010.9
20260905053325 14 0 0.0 4.8 0.00 1.09 1.09 91 1011.0
20260905052825 14 0 0.0 4.8 0.00 1.09 1.09 91 1011.0
20260905052325 14 109 0.0 4.8 0.00 1.09 1.09 91 1011.0
20260905051825 14 112 0.0 6.4 0.00 1.09 1.09 91 1011.0
20260905051326 14 113 1.6 6.4 0.00 1.09 1.09 91 1011.0
20260905050825 14 102 1.6 6.4 0.00 1.09 1.09 91 1010.9
20260905050325 14 109 3.2 8.0 0.00 1.09 1.09 91 1010.9
20260905045825 14 107 1.6 8.0 0.00 1.57 1.09 91 1010.9
20260905045326 13 110 4.8 8.0 0.00 1.57 1.09 91 1010.8
20260905044825 13 102 6.4 6.4 0.00 1.57 1.09 91 1010.9
20260905044326 14 107 3.2 4.8 0.00 1.57 1.09 91 1010.9
20260905043825 14 0 3.2 3.2 0.00 1.57 1.09 91 1010.9
20260905043325 14 0 0.0 1.6 0.00 1.57 1.09 91 1010.9
20260905042825 14 0 0.0 1.6 0.03 1.57 1.09 90 1010.8
20260905042325 14 71 0.0 1.6 0.03 1.57 1.09 90 1010.8
20260905041825 14 60 1.6 3.2 0.03 1.57 1.09 90 1010.8
20260905041326 14 63 0.0 3.2 0.03 1.57 1.09 90 1010.7
20260905040825 14 93 0.0 3.2 0.03 1.57 1.09 90 1010.5
20260905040325 14 0 3.2 3.2 0.03 1.57 1.09 90 1010.4
20260905035825 14 99 0.0 3.2 0.03 1.63 1.09 90 1010.5
20260905035325 14 102 0.0 3.2 0.03 1.63 1.09 90 1010.5
20260905034825 15 0 3.2 3.2 0.03 1.63 1.09 90 1010.4
20260905034326 15 0 0.0 0.0 0.03 1.63 1.09 90 1010.3
20260905033825 15 0 0.0 3.2 0.03 1.63 1.09 90 1010.2
20260905033325 15 0 0.0 3.2 0.03 1.63 1.09 90 1010.2
20260905032825 15 109 0.0 3.2 0.00 1.63 1.09 90 1010.1
20260905032325 15 0 1.6 1.6 0.00 1.63 1.09 90 1010.0
20260905031825 15 0 0.0 0.0 0.00 1.63 1.07 90 1010.1
20260905031326 15 0 0.0 0.0 0.00 1.63 1.07 90 1010.0
20260905030825 15 0 0.0 0.0 0.03 1.63 1.07 90 1010.0
20260905030325 15 0 0.0 0.0 0.03 1.63 1.07 90 1010.0
20260905025826 15 0 0.0 1.6 0.03 1.80 1.07 90 1010.0
20260905025325 15 121 0.0 1.6 0.03 1.80 1.07 90 1010.0
20260905024825 15 140 0.0 1.6 0.03 1.80 1.07 90 1009.9
20260905024326 16 0 0.0 0.0 0.03 1.80 1.07 90 1010.0
20260905023825 16 0 0.0 0.0 0.03 1.80 1.07 90 1010.1
20260905023325 16 92 0.0 1.6 0.03 1.80 1.07 90 1010.1
20260905022825 16 0 0.0 1.6 0.03 1.80 1.07 90 1010.2
20260905022325 16 170 0.0 1.6 0.03 1.80 1.07 90 1010.2
20260905021825 16 0 0.0 0.0 0.03 1.80 1.07 90 1010.1
20260905021326 16 0 0.0 0.0 0.03 1.80 1.07 90 1010.1
20260905020825 16 0 0.0 0.0 0.00 1.80 1.07 90 1010.1
20260905020325 16 0 0.0 0.0 0.00 1.80 1.07 90 1010.1
20260905015825 16 0 0.0 0.0 0.00 1.80 1.04 90 1010.1
20260905015325 16 0 0.0 0.0 0.00 1.80 1.04 90 1010.1
20260905014825 16 0 0.0 0.0 0.00 1.80 1.04 90 1010.0
20260905014420 16 0 0.0 0.0 0.00 1.80 1.04 90 1009.9
20260905014326 16 0 0.0 0.0 0.00 1.80 1.04 90 1009.9
20260905013825 16 0 0.0 0.0 0.00 1.80 1.04 90 1009.9
20260905013325 16 0 0.0 0.0 0.00 1.80 1.04 90 1010.0
20260905012825 16 0 0.0 0.0 0.00 1.80 1.04 90 1009.9
20260905012325 16 0 0.0 0.0 0.00 1.80 1.04 90 1009.8
20260905011825 16 0 0.0 3.2 0.00 1.80 1.04 90 1009.8
20260905011326 16 292 0.0 3.2 0.00 1.80 1.04 90 1009.8
20260905010825 16 16 0.0 3.2 0.00 1.80 1.04 90 1009.7
20260905005825 16 0 0.0 0.0 0.00 1.83 1.04 90 1009.7
20260905005325 16 0 0.0 0.0 0.00 1.83 1.04 90 1009.7
20260905004825 15 0 0.0 0.0 0.00 1.83 1.04 90 1009.7
20260905004326 15 0 0.0 0.0 0.00 1.83 1.04 90 1009.6
20260905003825 15 0 0.0 0.0 0.00 1.83 1.04 90 1009.6
20260905003325 16 0 0.0 0.0 0.00 1.83 1.04 90 1009.6
20260905002825 15 0 0.0 0.0 0.00 1.83 1.04 90 1009.6
20260905002325 16 9 0.0 0.0 0.00 1.83 1.04 90 1009.5
20260905001825 16 0 0.0 1.6 0.00 1.83 1.04 90 1009.5
20260905001326 16 354 0.0 1.6 0.00 1.83 1.04 90 1009.6
20260905000825 16 329 0.0 1.6 0.00 1.83 1.04 90 1009.5
20260905000325 16 330 0.0 4.8 0.00 1.83 1.04 90 1009.5
20260904235825 16 352 0.0 4.8 0.03 1.98 1.04 90 1009.5
20260904235325 16 329 1.6 4.8 0.03 1.98 1.04 90 1009.4
20260904234825 16 345 0.0 6.4 0.05 1.98 1.04 90 1009.4
20260904234326 16 19 1.6 6.4 0.05 1.98 1.04 90 1009.3
20260904233825 16 341 0.0 6.4 0.13 1.98 1.04 90 1009.3
20260904233325 16 316 1.6 4.8 0.13 1.98 1.04 90 1009.2
20260904232825 15 16 1.6 3.2 0.15 1.98 1.04 90 1009.3
20260904232325 15 355 0.0 3.2 0.15 1.98 1.04 90 1009.2
20260904231825 15 8 0.0 1.6 0.23 1.98 1.04 90 1009.2
20260904231326 15 50 0.0 0.0 0.23 1.98 1.04 90 1009.1
20260904230825 15 103 0.0 4.8 0.43 1.98 1.04 90 1009.1
20260904230325 15 324 0.0 4.8 0.43 1.98 1.04 90 1009.2
20260904225825 15 309 0.0 4.8 0.53 1.70 1.04 90 1009.1
20260904225325 15 348 0.0 9.7 0.53 1.70 1.04 89 1009.1
20260904224825 15 9 1.6 9.7 0.61 1.70 1.02 89 1009.1
20260904223825 15 32 3.2 6.4 0.69 1.70 0.97 89 1009.0
20260904223325 15 344 0.0 6.4 0.69 1.70 0.91 89 1009.0
20260904222825 15 0 1.6 4.8 0.76 1.70 0.91 89 1009.0
20260904222325 15 331 0.0 1.6 0.76 1.70 0.89 89 1008.9
20260904221825 15 0 0.0 0.0 0.74 1.70 0.89 89 1008.8
20260904221326 15 0 0.0 0.0 0.74 1.70 0.84 89 1008.8
20260904220326 16 0 0.0 4.8 0.56 1.70 0.71 88 1008.8
20260904215825 16 334 0.0 4.8 0.43 1.57 0.56 88 1008.7
20260904215325 16 2 0.0 4.8 0.43 1.57 0.51 88 1008.7
20260904214825 16 345 3.2 3.2 0.33 1.57 0.48 88 1008.6
20260904214326 16 0 0.0 3.2 0.33 1.57 0.41 88 1008.7
20260904213825 16 338 0.0 3.2 0.18 1.57 0.33 88 1008.6
20260904213325 16 18 1.6 1.6 0.18 1.57 0.25 88 1008.5
20260904212825 16 329 0.0 9.7 0.08 1.57 0.20 87 1008.5
20260904212325 16 316 1.6 9.7 0.08 1.57 0.15 87 1008.3
20260904211825 16 323 4.8 9.7 0.03 1.57 0.10 87 1008.2
20260904211326 16 295 4.8 12.9 0.03 1.57 0.08 87 1008.2
20260904210826 16 336 3.2 12.9 0.00 1.57 0.08 86 1008.2
20260904210325 16 334 6.4 12.9 0.00 1.57 0.08 86 1008.1
20260904205825 16 323 8.0 12.9 0.00 1.60 0.05 85 1008.1
20260904205325 16 337 8.0 11.3 0.00 1.60 0.05 85 1008.0
20260904204825 16 7 8.0 16.1 0.00 1.60 0.05 85 1008.0
20260904204326 17 331 9.7 16.1 0.00 1.60 0.05 85 1008.0
20260904203825 17 357 9.7 16.1 0.00 1.60 0.05 84 1007.9
20260904203325 17 320 11.3 17.7 0.00 1.60 0.05 84 1007.9
20260904202825 17 315 11.3 17.7 0.00 1.60 0.05 83 1007.9
20260904202325 18 306 8.0 17.7 0.00 1.60 0.05 84 1007.8
20260904201825 18 337 9.7 14.5 0.00 1.60 0.05 85 1007.8
20260904201326 18 310 8.0 14.5 0.00 1.60 0.05 84 1007.9
20260904200325 18 336 9.7 14.5 0.00 1.60 0.05 85 1007.9
20260904195825 18 327 6.4 11.3 0.00 1.65 0.05 85 1007.9
20260904195325 18 327 3.2 11.3 0.00 1.65 0.05 84 1007.9
20260904194825 18 287 6.4 11.3 0.00 1.65 0.05 84 1007.8
20260904194326 18 287 4.8 9.7 0.00 1.65 0.05 87 1007.8
20260904193825 17 322 3.2 3.2 0.00 1.65 0.05 88 1007.8
20260904193325 17 319 0.0 3.2 0.00 1.65 0.05 86 1007.8
20260904192825 17 256 1.6 3.2 0.00 1.65 0.05 86 1007.8
20260904192325 17 277 0.0 3.2 0.00 1.65 0.05 85 1007.7
20260904191825 17 282 1.6 11.3 0.00 1.65 0.05 85 1007.8
20260904191326 17 292 4.8 11.3 0.00 1.65 0.05 85 1007.8
20260904190825 17 175 4.8 11.3 0.00 1.65 0.05 85 1007.8
20260904190325 17 205 3.2 9.7 0.00 1.65 0.05 85 1007.8
20260904185825 18 155 3.2 6.4 0.00 1.75 0.05 86 1007.7
20260904185325 18 271 4.8 11.3 0.00 1.75 0.05 86 1007.6
20260904184825 18 281 1.6 11.3 0.00 1.75 0.05 85 1007.6
20260904184326 18 294 1.6 11.3 0.00 1.75 0.05 86 1007.6
20260904183825 18 165 3.2 11.3 0.00 1.75 0.05 85 1007.5
20260904183325 18 329 4.8 11.3 0.00 1.75 0.05 85 1007.5
20260904182825 18 303 3.2 11.3 0.00 1.75 0.05 85 1007.5
20260904182325 18 323 6.4 11.3 0.00 1.75 0.05 86 1007.4
20260904181825 18 198 3.2 11.3 0.00 1.75 0.05 87 1007.4
20260904181326 18 158 0.0 11.3 0.00 1.75 0.05 86 1007.4
20260904180825 18 103 3.2 4.8 0.00 1.75 0.05 88 1007.4
20260904180325 18 141 1.6 8.0 0.00 1.75 0.05 88 1007.4
20260904175825 17 186 1.6 8.0 0.00 1.91 0.05 89 1007.3
20260904175325 17 120 3.2 8.0 0.00 1.91 0.05 90 1007.3
20260904174825 17 336 0.0 6.4 0.00 1.91 0.05 91 1007.2
20260904174326 17 344 3.2 8.0 0.00 1.91 0.05 91 1007.2
20260904173825 17 218 1.6 8.0 0.00 1.91 0.05 92 1007.1
20260904173325 16 78 0.0 8.0 0.00 1.91 0.05 93 1007.1